OBJECT E, 64625

Orbit data source: Space-Track

You're viewing an Uncataloged Satellite

Recently launched and/or uncataloged satellites may have evolving metadata. Metadata may include but not limited to: Owner, Maufacturer, Bus, Motor, and Mission.

OBJECT E, 64625 is a satellite owned by Rocket Lab (US) in SSO that was launched on Thu, 26 Jun 2025 UTC launched from the Rocket Lab Launch Complex (RLLC). Unknown objects in Earth's orbit typically refer to objects detected orbiting the Earth but have not yet been identified or cataloged. These objects could be anything from previously untracked satellites, spent rocket stages, debris from satellite collisions, or even natural meteoroids temporarily captured by Earth's gravity.

Not visible in the next 10 days
Identifier
64625, 2025-137E
Orbit
SSO
Last TLE update
19 hours ago
Origin
Flag of USRLABN (US)
Manufacturer
Rocket Lab
Mission
Spacecraft
Bus & Motor
KICK STAGE, CURIE
Mass
~50 kg wet, ~50 kg dry
Launch date (UTC)
2025-06-26 (5 days ago)
Launch vehicle
Unknown
Launch site
Rocket Lab Launch Complex (RLLC)
Object type
Unknown
Shape & HBR
Unknown
Radar Cross Section
RCS unknown

Expand to show TLE details & history

TLE from 19 hours ago
0 OBJECT E
1 64625U 25138E   25181.65947416  .06724489  19532-5  49776-3 0  9992
2 64625  97.3101 186.6588 0146537 203.1381 214.0065 16.12584582   608
Epoch: 2025-06-30T15:49Z
TLE epoch observation values (Epoch: 2025-06-30T15:49:38.567Z)
Latitude
55.63644°
Longitude
19.53027°
Altitude
329.943 km
Speed
7.669 km/s
True Right ascension
11h 43m 37s
True Declination
55° 27' 57"
Sunlit
Object was in daylight at epoch
Visualization orbit readout
Latitude
-35.56088°
Longitude
36.39743°
Altitude
265.285 km
Speed
7.722 km/s
Apparent Right ascension
11h 40m 45s
Apparent Declination
-38° 59' 31"
Sunlit
Object is in daylight
Visualization observer readout
Local Sidereal Time
22:22:48
Azimuth
267.251° W
Elevation
-74.952°
Doppler factor
1
Orbital elements
Apogee altitude
333.531 km
Perigee altitude
139.671 km
Semi-major axis
6,614.738 km
Eccentricity
0.01465
Inclination
97.3101°
RAAN
186.6588°
Arg. of periapsis
203.1381°
True anomaly
Unknown
Mean anomaly
214.0065°
Eccentric anomaly
Unknown
Mean motion
4.03436 °/min
Orbital period
89.23 mins
BSTAR
0.00049776
Loading maneuver chart data...
Loading SW <> Apogee altitude chart data...
Loading historical data...
Loading historical data...
Loading historical data...
Loading historical data...
Loading historical data...
Loading historical data...
Loading historical data...
Other satellites on launch #137 in the year 2025 (2025-06-26 UTC)

OBJECT E Visibility

Observer location: undefined°, undefined°

OBJECT E is likely not visible in the next few days
Span
Click to sort rows by Start time (UTC) header in descending order
Start Az.
Max El. time (UTC)
Max El. Az.
Max El.
End time (UTC)
End Az.
|